| time (UTC) | temp F | wind direction | speed MPH | gust MPH | rain 1hr in | rain 24hr in | rain mn in | humidity % | barometer mb |
| 20260506191524 | 65 | 98 | 4.0 | 16.0 | 0.00 | 0.05 | 0.05 | 81 | 1006.1 |
| 20260506190023 | 65 | 57 | 8.0 | 17.0 | 0.00 | 0.05 | 0.05 | 81 | 1006.3 |
| 20260506184519 | 65 | 130 | 7.0 | 19.0 | 0.00 | 0.05 | 0.05 | 82 | 1006.1 |
| 20260506183018 | 64 | 105 | 6.0 | 15.0 | 0.00 | 0.05 | 0.05 | 82 | 1006.5 |
| 20260506181519 | 64 | 109 | 9.0 | 15.0 | 0.00 | 0.05 | 0.05 | 83 | 1006.7 |
| 20260506180018 | 64 | 56 | 5.0 | 11.0 | 0.00 | 0.05 | 0.05 | 85 | 1006.8 |
| 20260506174510 | 63 | 167 | 6.0 | 18.0 | 0.00 | 0.05 | 0.05 | 85 | 1006.8 |
| 20260506173009 | 63 | 38 | 7.0 | 15.0 | 0.01 | 0.05 | 0.05 | 84 | 1006.9 |
| 20260506171506 | 63 | 71 | 7.0 | 16.0 | 0.01 | 0.05 | 0.05 | 85 | 1006.8 |
| 20260506170005 | 63 | 137 | 6.0 | 15.0 | 0.02 | 0.05 | 0.05 | 85 | 1007.1 |
| 20260506164502 | 63 | 82 | 5.0 | 17.0 | 0.03 | 0.05 | 0.05 | 85 | 1007.1 |
| 20260506163106 | 63 | 100 | 4.0 | 12.0 | 0.03 | 0.04 | 0.04 | 86 | 1007.2 |
| 20260506161558 | 63 | 109 | 4.0 | 14.0 | 0.04 | 0.04 | 0.04 | 85 | 1007.4 |
| 20260506160107 | 63 | 103 | 7.0 | 11.0 | 0.03 | 0.03 | 0.03 | 84 | 1007.9 |
| 20260506154554 | 64 | 125 | 6.0 | 13.0 | 0.02 | 0.02 | 0.02 | 82 | 1008.2 |
| 20260506153049 | 64 | 136 | 7.0 | 14.0 | 0.01 | 0.01 | 0.01 | 80 | 1008.3 |
| 20260506151549 | 65 | 125 | 7.0 | 17.0 | 0.00 | 0.00 | 0.00 | 77 | 1007.9 |
| 20260506150048 | 66 | 116 | 8.0 | 18.0 | 0.00 | 0.00 | 0.00 | 73 | 1007.9 |
| 20260506144546 | 67 | 112 | 9.0 | 19.0 | 0.00 | 0.00 | 0.00 | 70 | 1008.0 |
| 20260506143045 | 67 | 107 | 11.0 | 20.0 | 0.00 | 0.00 | 0.00 | 69 | 1008.0 |
| 20260506141603 | 68 | 122 | 11.0 | 25.0 | 0.00 | 0.00 | 0.00 | 68 | 1008.1 |
| 20260506140044 | 68 | 86 | 10.0 | 20.0 | 0.00 | 0.00 | 0.00 | 68 | 1008.0 |
| 20260506134539 | 68 | 87 | 9.0 | 19.0 | 0.00 | 0.00 | 0.00 | 68 | 1008.0 |
| 20260506133035 | 67 | 104 | 6.0 | 19.0 | 0.00 | 0.00 | 0.00 | 70 | 1007.9 |
| 20260506131537 | 66 | 131 | 5.0 | 16.0 | 0.00 | 0.00 | 0.00 | 72 | 1008.0 |
| 20260506130034 | 66 | 130 | 7.0 | 19.0 | 0.00 | 0.00 | 0.00 | 72 | 1008.4 |
| 20260506124536 | 66 | 78 | 10.0 | 18.0 | 0.00 | 0.00 | 0.00 | 72 | 1008.3 |
| 20260506123039 | 66 | 104 | 7.0 | 16.0 | 0.00 | 0.00 | 0.00 | 73 | 1008.4 |
| 20260506121529 | 66 | 69 | 7.0 | 16.0 | 0.00 | 0.00 | 0.00 | 74 | 1008.4 |
| 20260506120037 | 66 | 51 | 6.0 | 19.0 | 0.00 | 0.00 | 0.00 | 74 | 1008.2 |
| 20260506114527 | 65 | 102 | 8.0 | 14.0 | 0.00 | 0.00 | 0.00 | 76 | 1008.1 |
| 20260506113026 | 64 | 112 | 6.0 | 15.0 | 0.00 | 0.00 | 0.00 | 77 | 1008.1 |
| 20260506111523 | 64 | 28 | 6.0 | 14.0 | 0.00 | 0.00 | 0.00 | 78 | 1008.0 |
| 20260506110025 | 64 | 92 | 6.0 | 13.0 | 0.00 | 0.00 | 0.00 | 78 | 1008.0 |
| 20260506104518 | 63 | 78 | 6.0 | 13.0 | 0.00 | 0.00 | 0.00 | 79 | 1008.1 |
| 20260506103026 | 63 | 69 | 6.0 | 13.0 | 0.00 | 0.00 | 0.00 | 79 | 1008.0 |
| 20260506101515 | 63 | 55 | 5.0 | 13.0 | 0.00 | 0.00 | 0.00 | 80 | 1008.0 |
| 20260506100013 | 63 | 40 | 6.0 | 13.0 | 0.00 | 0.00 | 0.00 | 80 | 1007.9 |
| 20260506094525 | 63 | 360 | 6.0 | 12.0 | 0.00 | 0.00 | 0.00 | 80 | 1008.0 |
| 20260506093006 | 64 | 59 | 5.0 | 12.0 | 0.00 | 0.00 | 0.00 | 79 | 1007.9 |
| 20260506091504 | 64 | 60 | 5.0 | 14.0 | 0.00 | 0.00 | 0.00 | 79 | 1007.8 |
| 20260506090002 | 64 | 82 | 7.0 | 15.0 | 0.00 | 0.00 | 0.00 | 78 | 1008.0 |
| 20260506084532 | 64 | 78 | 3.0 | 10.0 | 0.00 | 0.00 | 0.00 | 78 | 1008.1 |
| 20260506083029 | 65 | 63 | 7.0 | 12.0 | 0.00 | 0.00 | 0.00 | 78 | 1007.9 |
| 20260506081523 | 65 | 59 | 7.0 | 12.0 | 0.00 | 0.02 | 0.00 | 77 | 1008.1 |
| 20260506073016 | 66 | 98 | 4.0 | 12.0 | 0.00 | 0.02 | 0.00 | 75 | 1008.2 |
| 20260506071514 | 66 | 67 | 6.0 | 12.0 | 0.00 | 0.02 | 0.00 | 75 | 1008.2 |
| 20260506061506 | 66 | 70 | 3.0 | 8.0 | 0.00 | 0.02 | 0.00 | 76 | 1008.5 |
| 20260506044557 | 67 | 65 | 3.0 | 8.0 | 0.00 | 0.02 | 0.00 | 71 | 1009.2 |
| 20260506043048 | 67 | 69 | 4.0 | 9.0 | 0.00 | 0.02 | 0.00 | 71 | 1009.1 |
| 20260506041551 | 67 | 89 | 3.0 | 12.0 | 0.00 | 0.02 | 0.02 | 70 | 1009.1 |
| 20260506040044 | 67 | 103 | 5.0 | 11.0 | 0.00 | 0.02 | 0.02 | 69 | 1009.0 |
| 20260506034541 | 68 | 67 | 5.0 | 10.0 | 0.00 | 0.02 | 0.02 | 68 | 1008.9 |
| 20260506033039 | 68 | 120 | 5.0 | 12.0 | 0.00 | 0.02 | 0.02 | 67 | 1008.7 |
| 20260506031554 | 68 | 102 | 8.0 | 15.0 | 0.00 | 0.02 | 0.02 | 66 | 1008.7 |
| 20260506030046 | 68 | 89 | 3.0 | 10.0 | 0.00 | 0.02 | 0.02 | 66 | 1008.9 |
| 20260506024538 | 68 | 61 | 2.0 | 9.0 | 0.00 | 0.02 | 0.02 | 65 | 1009.0 |
| 20260506023038 | 69 | 142 | 4.0 | 12.0 | 0.00 | 0.02 | 0.02 | 64 | 1009.0 |
| 20260506021535 | 70 | 80 | 5.0 | 11.0 | 0.00 | 0.02 | 0.02 | 62 | 1008.9 |
| 20260506020005 | 71 | 51 | 6.0 | 15.0 | 0.00 | 0.02 | 0.02 | 60 | 1008.8 |
| 20260506014505 | 71 | 57 | 4.0 | 8.0 | 0.00 | 0.02 | 0.02 | 57 | 1008.7 |
| 20260506013102 | 72 | 35 | 6.0 | 10.0 | 0.00 | 0.02 | 0.02 | 55 | 1008.5 |
| 20260506013002 | 72 | 72 | 6.0 | 10.0 | 0.00 | 0.02 | 0.02 | 55 | 1008.4 |
| 20260506011601 | 73 | 94 | 5.0 | 11.0 | 0.00 | 0.02 | 0.02 | 53 | 1008.4 |
| 20260506004627 | 74 | 67 | 6.0 | 12.0 | 0.00 | 0.02 | 0.02 | 51 | 1008.1 |
| 20260506003058 | 74 | 123 | 8.0 | 14.0 | 0.00 | 0.02 | 0.02 | 50 | 1008.1 |
| 20260506001559 | 75 | 115 | 5.0 | 13.0 | 0.00 | 0.02 | 0.02 | 48 | 1007.9 |
| 20260506000057 | 75 | 78 | 6.0 | 17.0 | 0.00 | 0.02 | 0.02 | 47 | 1007.4 |
| 20260505234614 | 76 | 104 | 5.0 | 14.0 | 0.00 | 0.02 | 0.02 | 46 | 1007.3 |
| 20260505233050 | 77 | 90 | 7.0 | 17.0 | 0.00 | 0.02 | 0.02 | 46 | 1007.4 |
| 20260505231602 | 77 | 107 | 8.0 | 16.0 | 0.00 | 0.02 | 0.02 | 46 | 1007.4 |
| 20260505230052 | 78 | 34 | 8.0 | 17.0 | 0.00 | 0.02 | 0.02 | 45 | 1007.4 |
| 20260505224551 | 78 | 117 | 8.0 | 14.0 | 0.00 | 0.02 | 0.02 | 46 | 1007.0 |
| 20260505223059 | 78 | 88 | 8.0 | 21.0 | 0.00 | 0.02 | 0.02 | 46 | 1007.2 |
| 20260505221559 | 78 | 84 | 8.0 | 15.0 | 0.00 | 0.02 | 0.02 | 46 | 1007.5 |
| 20260505220055 | 79 | 60 | 11.0 | 20.0 | 0.00 | 0.02 | 0.02 | 43 | 1007.4 |
| 20260505214603 | 80 | 43 | 11.0 | 20.0 | 0.00 | 0.02 | 0.02 | 40 | 1007.0 |
| 20260505213017 | 81 | 103 | 10.0 | 22.0 | 0.00 | 0.02 | 0.02 | 39 | 1007.2 |
| 20260505211515 | 80 | 104 | 11.0 | 20.0 | 0.00 | 0.02 | 0.02 | 39 | 1007.1 |
| 20260505210014 | 81 | 113 | 9.0 | 28.0 | 0.00 | 0.02 | 0.02 | 36 | 1007.1 |
| 20260505204523 | 82 | 120 | 11.0 | 24.0 | 0.00 | 0.02 | 0.02 | 35 | 1007.1 |
| 20260505203015 | 81 | 127 | 8.0 | 19.0 | 0.00 | 0.02 | 0.02 | 37 | 1007.2 |
| 20260505201512 | 81 | 84 | 8.0 | 20.0 | 0.00 | 0.02 | 0.02 | 35 | 1007.1 |
| 20260505200020 | 81 | 78 | 11.0 | 23.0 | 0.00 | 0.02 | 0.02 | 35 | 1007.2 |
| 20260505194510 | 81 | 116 | 11.0 | 22.0 | 0.00 | 0.02 | 0.02 | 35 | 1007.5 |
| 20260505193010 | 81 | 112 | 10.0 | 22.0 | 0.00 | 0.02 | 0.02 | 37 | 1007.7 |